Home   Weather   Chorzów   Past weeks
Flag for Poland

Past Weather in Chorzów, Poland — Yesterday and Last 2 Weeks

Now
50 °F

Sunny.


Feels Like: 45 °F
Forecast: 48 / 35 °F
Wind: 13 mph from Southwest

Location: Katowice Airport

Current Time: Apr 2, 2020 at 6:32:26 pm

Latest Report: Apr 2, 2020 at 6:00 pm


Visibility: 10 mi

Pressure: 29.80 "Hg

Humidity: 25%

Dew Point: 16 °F

Location of ChorzówLocation

Past Weather in Chorzów — Graph

°F

Chorzów Temperature Yesterday

Maximum temperature yesterday: 43 °F (at 4:00 pm)
Minimum temperature yesterday: 16 °F (at 5:30 am)
Average temperature yesterday: 30 °F

High & Low Weather Summary for the Past Weeks

 TemperatureHumidityPressure
High63 °F (Mar 18, 4:00 pm)100% (Mar 19, 5:30 am)30.60 "Hg (Mar 19, 5:30 am)
Low16 °F (Apr 1, 5:30 am)24% (Mar 25, 2:00 pm)29.80 "Hg (Apr 2, 5:00 pm)
Average37 °F61%30.24 "Hg
* Reported Mar 18 4:00 pm — Apr 2 5:00 pm, Chorzów. Weather by CustomWeather, © 2020

Note: Actual official high and low records may vary slightly from our data, if they occured in-between our weather recording intervals... More about our weather records

Chorzów Weather History for the Previous 24 Hours

Scroll right to see more
 ConditionsComfort  
Time TempWeatherWind HumidityBarometerVisibility
5:00 pm
Thu, Apr 2
52 °FSunny.15 mph28%29.80 "Hg10 mi
4:30 pm52 °FSunny.15 mph28%29.83 "Hg10 mi
4:00 pm52 °FPassing clouds.14 mph28%29.83 "HgN/A
3:30 pm50 °FPassing clouds.15 mph28%29.83 "HgN/A
3:00 pm50 °FSunny.15 mph30%29.86 "Hg10 mi
2:30 pm50 °FPassing clouds.13 mph30%29.86 "HgN/A
2:00 pm50 °FSunny.13 mph28%29.89 "Hg10 mi
1:30 pm48 °FPassing clouds.15 mph29%29.89 "HgN/A
1:00 pm48 °FPassing clouds.13 mph29%29.89 "HgN/A
12:30 pm46 °FPassing clouds.14 mph32%29.89 "HgN/A
12:00 pm46 °FPassing clouds.10 mph34%29.92 "HgN/A
11:30 am46 °FSunny.14 mph34%29.92 "Hg10 mi
11:00 am45 °FPassing clouds.10 mph34%29.92 "HgN/A
10:30 am43 °FPassing clouds.9 mph39%29.95 "HgN/A
10:00 am41 °FPassing clouds.9 mph39%29.95 "HgN/A
9:30 am39 °FSunny.9 mph42%29.95 "Hg10 mi
9:00 am37 °FSunny.12 mph45%29.95 "Hg10 mi
8:30 am36 °FSunny.12 mph52%29.95 "Hg10 mi
8:00 am34 °FSunny.10 mph51%29.95 "Hg10 mi
7:30 am32 °FSunny.8 mph55%29.95 "Hg10 mi
7:00 am30 °FSunny.8 mph55%29.95 "Hg10 mi
6:30 am28 °FSunny.8 mph59%29.95 "Hg10 mi
6:00 am28 °FClear.7 mph59%29.95 "Hg10 mi
5:30 am28 °FPassing clouds.5 mph59%29.95 "HgN/A
5:00 am28 °FClear.8 mph59%29.95 "Hg10 mi
4:30 am28 °FClear.8 mph64%29.95 "Hg10 mi
4:00 am30 °FClear.8 mph59%29.95 "Hg10 mi
3:30 am30 °FClear.8 mph59%29.95 "Hg10 mi
3:00 am30 °FClear.8 mph59%29.95 "Hg6 mi
2:30 am27 °FClear.6 mph69%29.95 "Hg6 mi
2:00 am27 °FClear.2 mph69%29.98 "Hg5 mi
1:30 am27 °FClear.1 mph64%29.98 "Hg6 mi
1:00 am28 °FClear.3 mph64%29.98 "Hg4 mi
12:30 am30 °FClear.3 mph64%29.98 "Hg4 mi
12:00 am25 °FClear.1 mph74%29.98 "Hg5 mi
11:30 pm
Wed, Apr 1
25 °FClear.1 mph69%29.98 "Hg10 mi
11:00 pm27 °FClear.1 mph64%30.01 "Hg5 mi
10:30 pm27 °FClear.1 mph64%30.01 "Hg10 mi
10:00 pm25 °FClear.2 mph69%30.01 "Hg10 mi
9:30 pm27 °FClear.2 mph69%30.01 "Hg10 mi
9:00 pm27 °FClear.1 mph64%30.01 "Hg10 mi
8:30 pm30 °FClear.2 mph55%30.01 "Hg10 mi
8:00 pm34 °FClear.3 mph44%30.01 "Hg10 mi
7:30 pm37 °FClear.6 mph41%30.01 "Hg10 mi
7:00 pm37 °FSunny.8 mph41%30.01 "Hg10 mi
6:30 pm41 °FSunny.10 mph36%30.01 "Hg10 mi
6:00 pm41 °FSunny.13 mph33%30.04 "Hg10 mi
Weather by CustomWeather, © 2020

See weather overview

Advertising